Voltar ao catálogo

SL-14 DEB

AtivoPO
NORAD 25221·DEBRIS·🇷🇺 Russia

Lançado Aug 18, 1987 de Plesetsk Cosmodrome

Loading…

Próximas Passagens (próximas 24 horas)

TLE

AtualizadoSource: Space-Track

Época: Sep 14, 2026, 15:08 UTC

1 25221U 87068AY  26257.63112932  .00000335  00000-0  42388-3 0  9999
2 25221  82.3000  25.6089 0165018 190.3698 184.7906 13.55646885410421

Acompanhe SL-14 DEB em tempo real com AllMySat

Download on the App Store